BREEZE-M DEB (TANK), 39129

Orbit data source: Space-Track

BREEZE-M DEB (TANK), 39129 is space debris in HEO originally from a launch on Mon, 15 Apr 2013 UTC launched from the Tyuratam Missile And Space Complex (TTMTR). Debris objects in space refer to the collection of defunct objects orbiting the Earth. Examples of debris include non-operational satellites, rocket bodies, and fragments generated from explosions, collisions, or faulty payload assembly.

Loading next visibility...
BREEZE-M DEB (TANK) details
Identifier
39129, 2013-014C
Orbit
HEO
Last TLE update1 day ago
Origin
Flag of CISKhrunichev (CIS)
ManufacturerKhrunichev
MissionSpacecraft
Bus & MotorBRIZ TANK, Unknown motor
Mass~1,000 kg wet, 1,000 kg dry
Launch date (UTC)
2013-04-15 (12 years ago)
Launch vehicleUnknown
Launch site
Tyuratam Missile And Space Complex (TTMTR)
Object type
Payload
Rocket body
Debris
Shape & HBRTorus, 4 m
Radar Cross Section8.218 m², Large (>1 m²)

Expand to show TLE details & history

TLE from 1 day ago
0 BREEZE-M DEB (TANK)
1 39129U 13014C   24360.43257087  .00014367  00000-0  13179-2 0  9998
2 39129  49.4629  42.0196 5967813 127.8053 302.7656  4.12602152167081
Epoch: 2024-12-25T10:22Z
Definitive object data (Epoch: 2024-12-25T10:22:54.123Z)
Latitude-0.00003°
Longitude151.88316°
Altitude10,279.589 km
Speed4.857 km/s
True Right ascension02h 48m 08s
True Declination0° 00' 00"
Sunlit
Object was in daylight at TLE epoch
Visualization TLE readout
Latitude-7.34381°
Longitude-22.40136°
Altitude1,845.304 km
Speed8.525 km/s
Apparent Right ascension17h 28m 40s
Apparent Declination-31° 23' 30"
Sunlit
Object is in daylight
Visualization observer readout
Local Sidereal Time10:09:36
Azimuth104.936° ESE
Elevation-33.754°
Doppler factor1
Orbital elements
Apogee altitude19,842.6 km
Perigee altitude243.115 km
Semi-major axis16,420.995 km
Eccentricity0.5967813
Inclination49.4629°
RAAN42.0196°
Arg. of periapsis127.8053°
True anomaly232.23159°
Mean anomaly302.7656°
Eccentric anomaly268.58301°
Mean motion1.03144 °/min
BSTAR0.0013179
Orbital period349.03 mins
Loading maneuver chart data...
Loading historical data...
Loading historical data...
Loading historical data...
Loading historical data...
Loading historical data...
Loading historical data...
Loading historical data...
Other satellites on launch #14 in the year 2013 (2013-04-15 UTC)

BREEZE-M DEB (TANK) Visibility forecast

Observer location: undefined°, undefined

Span
Click to sort rows by Start time (UTC) header in descending order
Start Az.
Max El. time (UTC)
Max El. Az.
Max El.
End time (UTC)
End Az.
106 mins2024-12-27 01:59:22.097Z183.028° SSW2024-12-27 03:30:22.097Z137.61° SSE34.467°2024-12-27 03:45:22.097Z71.933° E
10 mins2024-12-27 09:35:22.097Z290.203° WNW2024-12-27 09:42:22.097Z343.598° N25.853°2024-12-27 09:45:22.097Z50.816° ENE
|